Starlink 11594

operational
NORAD ID: 64320 Int'l Des: 2025-124 Owner: SPXS Country: US Constellation: starlink
LEOCIRCULAR

关于 Starlink 11594

正在加载描述...

实时位置

正在加载3D地球...

即将过境

高度历史

Altitude vs Time

uPlot chart will show altitude changes over time

两行轨道根数

1 64320U 25124D 25353.15132634 .00290414 00000-0 21542-2 0 9998
2 64320 42.9993 155.0464 0002644 327.2326 32.8377 15.71216753 30167
Epoch: Dec 19, 2025 • Age: 16 hours

当前状态

高度 358.1 km
速度 7.70 km/s
星下点 42.94°N, 143.32°W
发射日期 Jun 10, 2025
运行时间 0.5 years
类型 internet

技术详情

分类 Payload
质量 960.00 kg
干质量 910.00 kg
总质量 960.00 kg
长度 0.30 m
直径 4.10 m
跨度 29.00 m
形状 Box + pan
制造商 SPXS
平台类型 Starlink V2MD
阶段状态 In Orbit
所有者/国家 SPXS/US

大型星座

Loading constellations...